TimePDT,TemperatureF,Dew PointF,Humidity,Sea Level PressureIn,VisibilityMPH,Wind Direction,Wind SpeedMPH,Gust SpeedMPH,PrecipitationIn,Events,Conditions,WindDirDegrees,DateUTC
12:56 AM,84.0,52.0,33,29.56,10.0,West,5.8,-,N/A,,Clear,260,2013-09-14 07:56:00
1:56 AM,82.9,54.0,37,29.57,10.0,Calm,Calm,-,N/A,,Clear,0,2013-09-14 08:56:00
2:56 AM,80.1,55.0,42,29.57,10.0,West,3.5,-,N/A,,Clear,260,2013-09-14 09:56:00
3:56 AM,80.1,54.0,40,29.56,10.0,Calm,Calm,-,N/A,,Clear,0,2013-09-14 10:56:00
4:56 AM,79.0,54.0,42,29.57,10.0,Calm,Calm,-,N/A,,Clear,0,2013-09-14 11:56:00
5:56 AM,78.1,54.0,43,29.59,10.0,WSW,4.6,-,N/A,,Clear,250,2013-09-14 12:56:00
6:56 AM,78.1,55.0,45,29.61,10.0,SW,4.6,-,N/A,,Clear,230,2013-09-14 13:56:00
7:56 AM,84.0,55.9,38,29.62,10.0,Calm,Calm,-,N/A,,Clear,0,2013-09-14 14:56:00
8:56 AM,87.1,55.9,35,29.62,10.0,North,3.5,-,N/A,,Clear,350,2013-09-14 15:56:00
9:56 AM,91.0,57.9,33,29.63,10.0,NNE,11.5,-,N/A,,Clear,20,2013-09-14 16:56:00
10:56 AM,93.0,59.0,32,29.63,10.0,NNE,9.2,-,N/A,,Clear,30,2013-09-14 17:56:00
11:56 AM,95.0,59.0,30,29.61,10.0,Variable,3.5,-,N/A,,Clear,0,2013-09-14 18:56:00
12:56 PM,98.1,54.0,23,29.59,10.0,NNE,3.5,-,N/A,,Clear,20,2013-09-14 19:56:00
1:56 PM,100.9,52.0,19,29.56,10.0,NNE,3.5,-,N/A,,Clear,30,2013-09-14 20:56:00
2:56 PM,102.0,50.0,17,29.54,10.0,North,3.5,-,N/A,,Clear,350,2013-09-14 21:56:00
3:56 PM,104.0,46.9,15,29.52,10.0,ENE,5.8,-,N/A,,Clear,70,2013-09-14 22:56:00
4:56 PM,102.9,48.0,16,29.51,10.0,East,4.6,-,N/A,,Clear,80,2013-09-14 23:56:00
5:56 PM,102.0,51.1,18,29.51,10.0,ENE,5.8,-,N/A,,Clear,60,2013-09-15 00:56:00
6:56 PM,97.0,53.1,23,29.52,10.0,Calm,Calm,-,N/A,,Clear,0,2013-09-15 01:56:00
7:56 PM,93.9,57.0,29,29.53,10.0,Calm,Calm,-,N/A,,Clear,0,2013-09-15 02:56:00
8:56 PM,91.9,54.0,27,29.55,10.0,West,5.8,-,N/A,,Clear,270,2013-09-15 03:56:00
9:56 PM,91.0,54.0,28,29.55,10.0,West,8.1,-,N/A,,Clear,260,2013-09-15 04:56:00
10:56 PM,89.1,54.0,30,29.57,10.0,WSW,3.5,-,N/A,,Clear,250,2013-09-15 05:56:00
11:56 PM,88.0,54.0,31,29.56,10.0,WSW,5.8,-,N/A,,Clear,250,2013-09-15 06:56:00